Simultaneous Nadir Overpasses (SNOs) Predictions

Prediction of SNOs between GOES-17 and TERRA Satellite Orbit:

Table of predicted SNOs for the next 14.0 days since TLE Epoch: 6/22/2024
Index Date Time (GOES-17) GOES-17 Lat,Lon TERRA Lat,Lon Distance(km) Time Diff (sec)
1 06/23/2024 16:36:22 0.00,-104.71 -0.55,-102.18 287.96 80
2 06/24/2024 04:56:24 -0.01,-104.69 -0.48,-107.06 268.55 80
3 06/26/2024 04:36:17 0.00,-104.69 0.37,-102.85 208.90 80
4 06/26/2024 16:56:12 -0.00,-104.71 0.62,-107.69 339.05 80
5 06/28/2024 16:41:25 -0.00,-104.71 -0.24,-103.48 138.99 80
6 06/29/2024 05:01:28 0.00,-104.69 -0.76,-108.36 416.99 80
7 07/01/2024 04:41:21 0.00,-104.69 0.14,-104.16 61.27 80
8 07/01/2024 17:01:15 0.00,-104.71 0.91,-108.99 486.84 80
9 07/03/2024 16:43:48 -0.00,-104.71 0.00,-104.79 8.91 80
10 07/05/2024 16:26:20 -0.01,-104.70 -0.87,-100.57 469.27 80
